Sarasota, FL

9:39 AM EDT on October 17, 2019 (GMT -0400)
Sarasota-bradenton

Weather History for KSRQ - August, 2019

Change the Weather History Date:

Wednesday, August 28, 2019

  Actual Average Record
Temperature  
Mean Temperature 84 °F 82 °F  
Max Temperature 88 °F 90 °F 98 °F (1938)
Min Temperature 80 °F 75 °F 65 °F (1984)
Degree Days  
Heating Degree Days 0 0  
Month to date heating degree days 0 0  
Since 1 June heating degree days 0 0  
Since 1 July heating degree days 0 0  
Cooling Degree Days 19 17  
Month to date cooling degree days 520 476  
Year to date cooling degree days 2791 2238  
Since 1 June cooling degree days 1634 1487  
Growing Degree Days 34 (Base 50)    
Moisture  
Dew Point 76 °F    
Average Humidity 80    
Maximum Humidity 91    
Minimum Humidity 67    
Precipitation  
Precipitation 0.01 in 0.28 in 3.02 in (1981)
Month to date precipitation 12.43 8.26  
Year to date precipitation 40.96 37.45  
Sea Level Pressure  
Sea Level Pressure 29.92 in    
Wind  
Wind Speed 6 mph ()    
Max Wind Speed 22 mph    
Max Gust Speed 30 mph    
Visibility 9.9 miles    
Events Rain , Thunderstorm    
T = Trace of Precipitation, MM = Missing Value Source: Averaged Metar Reports

Daily Weather History Graph

Daily Weather History Graph

Search for Another Location

Airport or City:

Astronomy

Aug. 28, 2019 Rise Set
Actual Time 7:07 AM EDT 7:55 PM EDT
Civil Twilight 6:43 AM EDT 8:19 PM EDT
Nautical Twilight 6:15 AM EDT 8:47 PM EDT
Astronomical Twilight 5:46 AM EDT 9:15 PM EDT
Moon 4:54 AM EDT (8/28) 6:52 PM EDT (8/28)
Length of Visible Light 13h 35m
Length of Day
12h 47m
Waning Crescent, 5% of the Moon is Illuminated
Aug 28
Waning Crescent
Aug 30
New
Sep 5
First Quarter
Sep 14
Full
Sep 21
Last Quarter

Hourly Weather History & Observations

Time (EDT) Temp. Heat Index Dew Point Humidity Pressure Visibility Wind Dir Wind Speed Gust Speed Precip Events Conditions
12:53 AM 82.9 °F 91.8 °F 77.0 °F 82% 29.94 in 10.0 mi NW 9.2 mph - N/A   Partly Cloudy
1:53 AM 82.0 °F 90.2 °F 77.0 °F 85% 29.94 in 10.0 mi NNW 5.8 mph - N/A   Clear
2:53 AM 81.0 °F 87.9 °F 77.0 °F 88% 29.91 in 10.0 mi NNW 3.5 mph - N/A   Clear
3:53 AM 82.0 °F 90.2 °F 77.0 °F 85% 29.90 in 10.0 mi Calm Calm - N/A   Clear
4:53 AM 81.0 °F 87.9 °F 77.0 °F 88% 29.90 in 10.0 mi NW 3.5 mph - N/A   Clear
5:53 AM 80.1 °F 85.4 °F 75.9 °F 87% 29.91 in 10.0 mi NNW 4.6 mph - N/A   Clear
6:53 AM 81.0 °F 87.3 °F 75.9 °F 85% 29.93 in 10.0 mi NW 4.6 mph - N/A   Partly Cloudy
7:53 AM 82.0 °F 90.2 °F 77.0 °F 85% 29.93 in 10.0 mi NW 6.9 mph - N/A   Partly Cloudy
8:53 AM 84.9 °F 95.3 °F 77.0 °F 77% 29.94 in 10.0 mi WNW 5.8 mph - N/A   Mostly Cloudy
9:31 AM 87.1 °F 99.8 °F 78.1 °F 74% 29.94 in 10.0 mi West 8.1 mph - N/A Thunderstorm Partly Cloudy
9:46 AM 84.9 °F 95.3 °F 77.0 °F 77% 29.94 in 10.0 mi West 11.5 mph - N/A   Mostly Cloudy
9:53 AM 84.0 °F 91.9 °F 75.0 °F 74% 29.94 in 10.0 mi WNW 9.2 mph - N/A Thunderstorm Mostly Cloudy
10:01 AM 87.1 °F 96.3 °F 75.0 °F 67% 29.94 in 10.0 mi WNW 9.2 mph - N/A Thunderstorm Mostly Cloudy
10:53 AM 84.9 °F 94.1 °F 75.9 °F 74% 29.96 in 10.0 mi NNW 16.1 mph 29.9 mph N/A Thunderstorm Mostly Cloudy
11:06 AM 81.0 °F 86.7 °F 75.0 °F 82% 29.97 in 8.0 mi NW 10.4 mph 24.2 mph 0.00 in Rain , Thunderstorm Light Rain
11:53 AM 82.0 °F 88.6 °F 75.0 °F 79% 29.96 in 10.0 mi WNW 17.3 mph - 0.00 in Thunderstorm Scattered Clouds
12:53 PM 84.0 °F 93.7 °F 77.0 °F 79% 29.95 in 10.0 mi West 8.1 mph - N/A Thunderstorm Scattered Clouds
1:53 PM 84.0 °F 93.7 °F 77.0 °F 79% 29.94 in 10.0 mi NNW 5.8 mph - N/A Thunderstorm Clear
2:53 PM 84.9 °F 96.6 °F 78.1 °F 80% 29.91 in 10.0 mi WNW 9.2 mph - N/A Thunderstorm Clear
3:53 PM 84.9 °F 94.1 °F 75.9 °F 74% 29.89 in 10.0 mi WNW 8.1 mph - N/A Thunderstorm Clear
4:00 PM 86.0 °F 96.9 °F 77.0 °F 74% 29.89 in 10.0 mi WNW 8.1 mph - N/A   Clear
4:53 PM 86.0 °F 98.3 °F 78.1 °F 77% 29.89 in 10.0 mi WNW 10.4 mph - N/A   Scattered Clouds
5:53 PM 84.0 °F 94.8 °F 78.1 °F 82% 29.89 in 10.0 mi NW 10.4 mph - 0.01 in Rain Light Rain
6:53 PM 84.9 °F 93.3 °F 75.0 °F 72% 29.88 in 10.0 mi WNW 6.9 mph - 0.00 in   Clear
7:53 PM 84.0 °F 93.7 °F 77.0 °F 79% 29.87 in 10.0 mi NW 8.1 mph - N/A   Clear
8:53 PM 82.9 °F 91.8 °F 77.0 °F 82% 29.88 in 10.0 mi WNW 6.9 mph - N/A   Clear
9:53 PM 82.0 °F 89.4 °F 75.9 °F 82% 29.90 in 10.0 mi NW 6.9 mph - N/A   Clear
10:53 PM 81.0 °F 86.7 °F 75.0 °F 82% 29.91 in 10.0 mi NNW 4.6 mph - N/A   Clear
11:53 PM 80.1 °F 85.1 °F 75.0 °F 85% 29.90 in 10.0 mi North 3.5 mph - N/A   Clear